Dewpoint
16 12 9 11 12 11 10 10 7 8 15 11 14 14 14 13 7 5 0 -2 2 5 10 12 11 11 12 15 16 19 22 24 25 26 26 27 27 28 29 30 28 26 27 28
15 11 11 10 12 11 11 7 7 9 11 10 14 14 15 14 7 2 -3 1 5 9 11 11 11 13 15 15 17 21 22 24 26 27 28 28 29 29 30 30 31 30 28 27
13 12 11 11 11 9 11 7 7 7 10 13 13 14 15 12 7 -3 -1 4 7 10 11 12 13 14 15 17 20 21 24 25 27 28 30 33 35 35 34 32 32 32 31 31
16 11 11 11 12 10 9 9 7 6 8 10 12 10 13 6 -3 -5 -1 5 8 11 12 13 14 15 16 18 22 24 26 28 29 32 34 35 37 37 36 37 35 33 32 31
15 11 7 6 6 10 9 8 3 8 7 12 8 -0 4 -2 -8 -6 1 5 8 12 14 14 15 14 18 23 27 29 31 32 33 34 35 37 38 38 39 39 38 37 35 33
15 10 7 6 8 11 10 0 13 15 14 7 -3 -4 4 -3 -7 -3 2 5 9 12 15 16 15 17 20 28 29 32 33 34 35 36 37 37 38 37 37 38 38 38 38 36
10 9 9 7 5 9 4 1 5 2 1 -5 -2 2 6 -7 -4 -0 2 7 10 14 16 15 15 19 26 30 32 34 35 36 37 37 37 38 38 38 37 37 37 38 38 38
7 10 8 7 7 1 1 0 -3 -6 -3 -3 2 2 7 -7 -2 1 4 9 11 15 15 15 18 24 31 32 32 34 37 37 38 38 38 38 38 38 38 38 37 37 38 39
3 8 11 7 7 -1 -2 -6 -2 4 3 0 -1 5 2 -4 -1 1 6 8 12 16 15 15 21 26 32 30 33 36 37 37 37 37 37 38 38 38 38 39 39 38 38 39
4 6 6 7 9 1 -4 -5 -5 -1 -5 -7 -7 -4 -8 -2 -0 3 6 8 14 15 13 18 23 26 29 31 35 37 37 36 37 37 38 38 39 40 41 40 40 39 38 38
7 4 8 8 4 -0 -2 -3 -5 -1 -2 -8 -1 -4 -2 -1 1 5 7 9 15 14 16 20 24 27 30 34 37 36 36 36 37 38 39 39 40 40 40 40 40 41 40 39
11 11 4 5 5 5 2 1 1 9 4 9 7 3 1 0 6 8 8 13 15 13 17 21 25 27 30 34 36 36 36 37 38 40 39 40 40 39 38 39 39 42 42 40
18 7 8 8 11 9 5 4 2 5 8 13 0 2 2 4 8 9 10 14 12 15 18 23 26 27 30 32 34 36 36 37 39 38 38 39 39 39 38 38 39 40 41 40
19 8 4 7 4 8 6 7 8 7 4 1 1 -0 1 7 9 9 13 15 13 15 19 24 26 28 32 33 35 35 36 37 38 37 37 38 38 38 38 38 38 38 40 40
12 11 1 5 4 3 2 1 4 10 5 1 0 1 4 8 9 10 16 12 13 14 20 25 27 30 33 33 34 35 36 37 38 36 36 37 39 39 38 37 37 38 40 41
9 12 2 2 4 1 -0 2 3 3 -3 -2 3 1 9 10 11 16 15 13 14 15 21 26 28 32 33 33 34 34 35 37 36 34 34 37 38 38 38 36 36 37 38 41
9 7 10 7 -2 -0 2 2 -0 1 2 4 4 8 10 11 15 17 13 15 14 16 22 27 28 33 33 33 34 34 34 35 32 32 32 34 35 37 36 35 35 36 36 37
9 14 15 14 0 7 5 4 5 3 3 8 9 9 12 15 18 16 15 15 13 18 24 27 30 33 32 33 34 34 34 34 31 33 31 32 33 34 36 35 35 34 36 36
8 13 17 8 6 1 1 4 1 6 6 11 10 13 15 19 18 14 17 14 14 20 27 28 29 32 31 33 34 34 33 32 31 32 31 31 32 32 33 35 35 34 34 35
10 10 22 15 7 6 5 7 9 12 10 11 14 16 19 20 16 15 16 15 15 22 28 28 28 31 31 33 35 33 33 34 32 32 31 31 32 32 32 32 33 33 32 31
14 16 17 13 11 8 6 8 15 4 6 13 16 20 21 19 17 17 15 14 16 25 27 28 28 30 31 34 35 33 34 35 33 31 32 31 30 32 32 31 32 30 30 30
9 17 23 14 5 7 9 13 7 13 15 17 20 22 21 18 17 16 15 15 17 26 27 28 28 30 32 34 35 33 34 36 32 30 31 31 30 30 31 31 31 30 29 27
11 12 22 11 11 8 7 12 16 17 17 19 23 23 18 17 17 17 15 15 19 27 27 28 28 30 32 34 35 33 34 37 29 29 29 28 29 30 31 31 30 30 29 28
7 8 4 3 7 7 8 14 15 17 20 23 23 18 18 18 18 16 14 15 21 27 27 28 28 31 32 34 35 35 35 37 29 29 29 27 27 29 31 31 31 30 29 28
7 6 8 9 8 11 13 15 17 20 23 23 19 19 20 19 17 15 13 16 24 27 28 28 28 30 32 34 34 36 36 38 29 29 29 29 28 26 28 31 31 31 31 30
8 3 5 4 8 13 15 17 21 22 23 20 20 20 19 18 15 14 14 17 25 27 28 28 29 31 33 34 34 36 37 38 30 30 29 29 29 28 25 25 28 29 30 32
Wind_Speed
17 16 15 13 16 15 15 12 15 20 5 4 13 11 8 1 11 13 17 23 23 22 23 24 26 26 26 28 26 30 29 27 25 23 23 22 21 23 21 19 19 19 21 17
7 17 8 9 17 21 9 11 12 8 10 5 12 11 5 3 8 15 21 22 25 26 28 27 28 28 29 31 31 25 30 28 24 22 23 21 21 22 23 22 22 23 23 27
18 11 9 14 17 22 8 11 17 13 15 10 6 9 6 5 4 19 19 21 24 28 30 31 32 32 32 31 32 30 28 30 24 27 20 21 23 22 23 23 21 21 21 20
10 14 13 11 11 17 5 21 21 15 9 2 1 3 5 8 15 20 23 26 26 28 29 31 33 33 36 36 29 33 31 28 27 26 26 28 25 27 23 24 24 24 23 24
5 11 16 11 10 13 8 32 27 19 8 4 2 5 6 17 21 27 27 28 28 30 30 34 31 39 33 29 38 29 34 31 30 28 27 26 26 24 23 24 25 25 24 24
9 7 8 10 17 5 26 28 5 5 4 4 8 5 10 12 22 26 27 27 30 31 34 31 38 34 31 35 31 34 34 32 31 30 29 29 29 29 27 25 24 23 22 21
8 13 3 19 7 4 24 23 7 4 6 5 20 9 6 14 20 21 28 31 33 31 32 39 36 36 36 37 36 33 34 35 33 33 31 29 29 28 27 26 23 23 21 20
9 5 12 15 13 9 12 16 8 6 8 15 23 5 7 16 18 22 26 29 31 34 37 33 36 37 38 38 35 34 34 34 33 32 31 29 28 24 24 23 23 22 21 20
11 4 5 9 10 13 8 8 3 5 12 9 3 6 10 27 29 25 30 33 34 36 35 39 37 35 38 35 35 35 35 34 33 32 30 30 28 28 27 27 24 22 22 21
7 4 2 2 2 12 9 9 5 6 9 9 9 8 14 29 29 31 36 36 36 40 37 38 33 36 37 34 35 35 34 34 33 33 30 29 30 28 26 25 24 23 23 21
9 3 1 2 8 12 8 7 7 2 2 5 9 4 19 23 28 34 35 33 35 31 38 35 36 36 35 34 34 35 35 35 34 33 31 29 28 28 27 27 28 24 22 17
4 3 4 5 5 4 12 7 7 4 7 5 2 8 24 31 28 30 33 33 35 34 36 34 36 35 36 36 36 35 35 35 34 30 31 29 29 29 29 30 32 27 20 9
8 3 4 2 2 2 5 4 6 1 2 3 5 9 29 23 29 30 31 34 31 36 37 35 37 36 37 37 37 37 37 36 32 32 32 30 31 30 30 31 30 29 12 1
4 3 4 2 2 0 1 2 4 5 4 11 13 23 25 28 32 33 33 29 33 33 34 35 36 36 36 36 36 36 37 36 32 32 31 31 32 31 31 30 30 28 21 2
3 2 4 3 2 2 3 3 2 4 8 5 16 20 22 29 30 31 32 30 36 36 36 37 38 36 36 37 37 36 36 35 32 32 32 31 31 30 31 32 32 30 26 8
2 3 4 3 3 2 5 5 5 10 8 10 16 16 21 25 23 30 27 34 36 35 36 35 38 35 35 35 35 35 36 35 29 31 32 29 30 30 32 32 34 34 34 17
3 5 4 0 2 3 4 3 1 8 9 10 10 15 23 27 27 32 26 35 34 34 35 34 36 33 32 33 33 34 33 31 29 31 31 30 29 29 32 32 32 33 31 27
2 3 1 4 3 3 4 4 3 7 8 5 9 19 20 21 26 25 28 29 32 33 32 33 32 32 31 30 31 30 30 28 29 28 30 31 29 29 27 30 31 31 30 30
8 1 2 3 5 2 3 1 4 4 5 7 13 16 19 22 22 15 27 29 29 30 27 30 29 29 29 30 30 29 29 28 27 28 29 30 29 29 28 24 27 27 28 29
1 4 2 2 3 3 3 4 3 2 3 11 13 16 20 24 23 24 30 28 29 27 28 29 31 28 28 30 29 28 30 29 27 27 25 28 28 26 28 29 24 20 23 27
2 1 1 2 3 2 6 4 1 4 6 12 13 15 17 19 18 24 27 28 27 24 30 30 30 28 29 28 29 28 29 31 24 25 20 23 29 24 26 26 26 26 22 22
1 3 2 1 2 5 9 3 2 2 7 10 12 14 17 19 21 23 25 27 27 27 29 30 29 29 28 28 28 28 30 30 20 22 22 21 21 27 23 26 25 24 24 24
2 4 2 4 3 9 5 6 6 4 5 8 11 13 16 18 20 23 25 27 27 26 27 27 27 29 29 29 27 28 29 30 22 20 23 23 19 23 26 25 26 24 23 24
6 3 3 2 8 8 8 5 3 4 5 7 9 12 14 18 19 22 22 24 24 24 26 28 26 28 30 30 27 25 27 28 19 21 21 21 20 18 22 23 22 24 24 23
2 11 7 4 8 9 4 6 5 4 2 6 9 11 14 16 18 19 21 23 23 23 24 25 24 26 28 29 28 26 27 28 22 20 19 20 19 18 15 19 24 22 24 25
9 7 8 3 14 7 13 9 5 2 4 7 10 11 12 14 17 18 20 20 21 23 24 24 25 25 27 27 26 26 27 27 21 20 18 19 18 17 16 15 11 25 28 30
Wind_Direction
53 61 33 15 15 337 288 304 352 343 114 80 113 127 107 19 41 5 358 6 355 351 348 340 341 339 340 335 331 328 322 322 320 314 310 306 301 299 292 287 278 276 285 292
87 48 359 324 23 350 345 16 356 327 353 7 133 129 129 74 33 10 10 1 353 350 344 343 344 345 338 331 330 326 324 314 316 310 304 302 304 296 287 283 279 276 270 270
77 12 340 15 24 0 7 25 340 310 324 54 157 136 184 154 348 10 10 3 354 348 343 344 344 334 332 335 331 324 326 321 317 321 314 316 312 306 305 294 284 275 270 276
61 22 20 28 26 360 300 347 313 296 319 6 206 323 109 34 4 1 5 360 350 348 344 341 338 338 335 332 335 334 331 333 325 333 329 315 301 299 287 291 288 279 269 262
24 32 20 17 354 348 307 312 299 276 230 251 162 297 139 33 1 0 359 353 349 346 343 337 340 331 340 344 338 341 331 324 321 318 317 309 301 295 292 286 286 284 278 267
93 85 35 342 315 50 328 327 137 84 195 157 4 322 56 15 9 353 355 350 347 342 341 340 334 344 339 342 338 332 328 325 324 321 317 311 305 300 297 293 285 281 278 272
103 50 78 12 2 350 356 359 2 3 2 319 355 54 77 25 18 0 353 349 342 345 343 336 346 344 346 341 335 331 329 326 328 324 320 314 306 300 293 289 286 278 275 271
345 313 20 359 27 311 4 37 52 318 325 293 304 75 161 34 16 4 355 346 342 344 342 346 345 344 348 336 334 334 331 328 327 325 321 316 310 304 296 288 280 278 274 265
5 43 136 45 22 23 343 21 277 275 270 288 104 83 208 11 6 360 352 347 346 346 340 348 345 351 340 338 340 337 334 331 330 327 323 319 315 309 301 293 282 273 268 265
3 302 49 15 267 42 72 2 360 326 340 318 342 67 354 2 354 358 352 346 345 337 352 345 349 348 343 344 341 338 337 333 330 328 326 323 318 317 321 315 296 279 263 258
3 247 141 125 37 26 7 26 354 252 27 315 321 60 25 360 5 354 345 342 340 346 347 345 349 346 344 343 341 337 337 334 331 329 328 330 335 336 335 329 321 305 265 237
35 313 354 66 94 13 67 32 23 36 332 314 272 260 16 8 0 351 338 339 334 351 344 348 348 346 346 344 342 341 339 337 336 341 343 345 344 344 344 342 340 343 350 197
352 27 305 207 234 203 53 39 8 245 229 246 345 276 353 356 354 342 340 336 351 347 347 349 349 349 346 345 343 343 341 340 339 347 349 349 351 351 351 349 348 350 10 194
317 350 28 286 5 325 343 85 43 15 266 322 285 321 333 352 347 338 340 339 350 346 346 348 349 349 345 344 343 343 342 341 343 350 353 354 355 356 356 354 353 351 348 328
32 347 348 101 83 348 309 294 208 209 266 280 300 326 354 346 337 334 332 350 349 346 348 351 351 345 343 344 343 344 343 341 344 350 354 359 358 0 2 360 358 360 3 55
360 359 331 239 170 284 283 247 268 282 335 315 321 317 350 332 333 334 342 354 346 346 347 349 349 343 343 343 342 341 343 339 348 351 357 1 4 6 6 7 10 14 17 42
357 347 343 77 207 300 275 280 324 335 337 321 327 335 341 336 340 331 360 350 343 345 347 351 347 340 339 341 341 342 339 340 356 356 359 1 4 9 11 11 15 18 20 19
20 43 20 283 276 321 147 52 338 326 323 37 345 336 336 337 329 324 1 344 343 344 348 351 344 338 338 341 343 342 343 347 358 1 2 3 5 9 12 15 16 18 21 24
17 47 9 350 299 136 176 140 12 33 344 47 346 339 340 339 328 332 346 347 343 343 352 346 342 338 340 345 344 345 347 353 1 3 7 5 3 10 11 17 24 20 23 27
20 83 79 348 321 298 93 120 65 179 128 3 1 350 347 345 346 330 341 341 342 345 354 348 342 342 345 345 346 350 350 350 4 1 8 9 5 12 14 7 18 32 32 33
132 36 297 297 274 286 116 108 241 8 323 1 359 352 349 341 325 322 334 341 341 351 350 351 346 346 346 346 347 354 350 350 355 359 1 11 15 14 17 14 13 20 35 34
212 165 234 124 261 292 136 158 39 7 7 358 0 350 340 330 330 333 338 338 342 353 353 355 347 346 347 348 348 356 351 344 352 4 0 5 24 19 19 23 22 27 25 36
253 195 191 197 249 116 118 72 84 50 348 1 353 342 338 332 335 336 341 341 344 352 354 354 349 345 348 349 349 353 345 344 0 8 6 8 12 32 23 26 27 30 34 36
197 138 201 341 148 155 145 121 94 58 15 346 344 345 340 336 332 340 337 343 347 353 355 352 351 347 346 347 347 351 346 344 6 6 11 10 9 22 37 31 31 36 37 39
133 149 181 232 135 109 151 133 90 70 353 350 0 350 342 334 339 338 342 345 346 356 359 352 352 348 346 344 345 350 344 346 7 10 13 10 9 10 24 48 41 41 47 51
183 180 178 192 144 110 160 139 119 125 27 359 3 341 345 344 344 346 345 342 347 357 356 354 353 349 345 345 344 350 345 348 9 10 13 12 6 7 18 24 43 54 56 55